Terug naar catalogus

OPS 4682 DEB

ActiefPO
NORAD 38458·DEBRIS·🇺🇸 United States

Gelanceerd Apr 3, 1965 vanaf Vandenberg Space Force Base

Loading…

Volgende Passages (komende 24 uur)

TLE

VersSource: Space-Track

Epoch: Sep 12, 2026, 18:22 UTC

1 38458U 65027FP  26255.76531284  .00000253  00000-0  89246-3 0  9996
2 38458  90.2512   8.7847 0028752  55.7472 304.6364 12.93453538624985

Volg OPS 4682 DEB in realtime met AllMySat

Download on the App Store